| time (UTC) | temp F | wind direction | speed knots | gust knots | rain 1hr in | rain 24hr in | rain mn in | humidity % | barometer mb |
| 20260507095119 | 38 | 341 | 1.7 | 2.6 | 0.00 | 0.00 | 0.00 | 94 | 1012.4 |
| 20260507094617 | 39 | 326 | 1.7 | 3.5 | 0.00 | 0.00 | 0.00 | 94 | 1012.4 |
| 20260507094118 | 39 | 310 | 1.7 | 1.7 | 0.00 | 0.00 | 0.00 | 94 | 1012.4 |
| 20260507093618 | 39 | 345 | 1.7 | 2.6 | 0.00 | 0.00 | 0.00 | 93 | 1012.4 |
| 20260507093118 | 39 | 347 | 1.7 | 2.6 | 0.00 | 0.00 | 0.00 | 94 | 1012.5 |
| 20260507092620 | 39 | 340 | 2.6 | 3.5 | 0.00 | 0.00 | 0.00 | 93 | 1012.5 |
| 20260507092120 | 40 | 340 | 2.6 | 4.3 | 0.00 | 0.00 | 0.00 | 93 | 1012.5 |
| 20260507091618 | 40 | 334 | 2.6 | 5.2 | 0.00 | 0.00 | 0.00 | 93 | 1012.5 |
| 20260507091118 | 40 | 332 | 2.6 | 5.2 | 0.00 | 0.00 | 0.00 | 91 | 1012.4 |
| 20260507090619 | 40 | 331 | 1.7 | 2.6 | 0.00 | 0.00 | 0.00 | 92 | 1012.4 |
| 20260507090117 | 40 | 323 | 2.6 | 3.5 | 0.00 | 0.00 | 0.00 | 92 | 1012.4 |
| 20260507085618 | 40 | 342 | 2.6 | 6.1 | 0.00 | 0.00 | 0.00 | 91 | 1012.4 |
| 20260507085117 | 40 | 338 | 2.6 | 5.2 | 0.00 | 0.00 | 0.00 | 91 | 1012.4 |
| 20260507084619 | 40 | 351 | 3.5 | 5.2 | 0.00 | 0.00 | 0.00 | 92 | 1012.3 |
| 20260507084118 | 40 | 336 | 2.6 | 5.2 | 0.00 | 0.00 | 0.00 | 91 | 1012.4 |
| 20260507083620 | 41 | 325 | 1.7 | 3.5 | 0.00 | 0.00 | 0.00 | 92 | 1012.4 |
| 20260507083117 | 41 | 331 | 1.7 | 2.6 | 0.00 | 0.00 | 0.00 | 93 | 1012.5 |
| 20260507082617 | 41 | 335 | 2.6 | 6.1 | 0.00 | 0.00 | 0.00 | 92 | 1012.4 |
| 20260507082118 | 41 | 331 | 1.7 | 5.2 | 0.00 | 0.00 | 0.00 | 92 | 1012.4 |
| 20260507081618 | 41 | 335 | 2.6 | 3.5 | 0.00 | 0.00 | 0.00 | 93 | 1012.4 |
| 20260507081118 | 41 | 329 | 1.7 | 1.7 | 0.00 | 0.00 | 0.00 | 94 | 1012.4 |
| 20260507080622 | 41 | 321 | 0.9 | 1.7 | 0.00 | 0.00 | 0.00 | 95 | 1012.5 |
| 20260507080120 | 41 | 327 | 2.6 | 7.0 | 0.00 | 0.00 | 0.00 | 95 | 1012.5 |
| 20260507075618 | 41 | 314 | 2.6 | 5.2 | 0.00 | 0.00 | 0.00 | 95 | 1012.5 |
| 20260507075120 | 41 | 333 | 3.5 | 4.3 | 0.00 | 0.00 | 0.00 | 97 | 1012.4 |
| 20260507074621 | 41 | 328 | 3.5 | 5.2 | 0.00 | 0.00 | 0.00 | 97 | 1012.5 |
| 20260507074120 | 41 | 272 | 0.9 | 1.7 | 0.00 | 0.00 | 0.00 | 99 | 1012.4 |
| 20260507073619 | 41 | 314 | 1.7 | 3.5 | 0.00 | 0.00 | 0.00 | 98 | 1012.3 |
| 20260507073119 | 41 | 326 | 1.7 | 5.2 | 0.00 | 0.00 | 0.00 | 97 | 1012.4 |
| 20260507072618 | 41 | 338 | 1.7 | 2.6 | 0.00 | 0.00 | 0.00 | 100 | 1012.3 |
| 20260507072117 | 41 | 19 | 0.9 | 1.7 | 0.00 | 0.00 | 0.00 | 99 | 1011.9 |
| 20260507071617 | 41 | 303 | 0.0 | 0.0 | 0.00 | 0.00 | 0.00 | 99 | 1012.1 |
| 20260507071117 | 41 | 332 | 0.9 | 1.7 | 0.00 | 0.00 | 0.00 | 99 | 1011.9 |
| 20260507070618 | 41 | 341 | 1.7 | 3.5 | 0.00 | 0.00 | 0.00 | 99 | 1012.0 |
| 20260507070121 | 41 | 301 | 0.0 | 0.9 | 0.00 | 0.00 | 0.00 | 99 | 1012.1 |
| 20260507065617 | 41 | 275 | 0.9 | 1.7 | 0.00 | 0.00 | 0.00 | 99 | 1012.0 |
| 20260507065119 | 41 | 316 | 1.7 | 1.7 | 0.00 | 0.00 | 0.00 | 100 | 1012.1 |
| 20260507064620 | 41 | 277 | 1.7 | 2.6 | 0.00 | 0.00 | 0.00 | 99 | 1011.8 |
| 20260507064118 | 41 | 267 | 1.7 | 3.5 | 0.00 | 0.00 | 0.00 | 99 | 1011.0 |
| 20260507063617 | 41 | 321 | 1.7 | 1.7 | 0.00 | 0.00 | 0.00 | 99 | 1010.7 |
| 20260507063120 | 41 | 317 | 1.7 | 2.6 | 0.00 | 0.00 | 0.00 | 99 | 1011.1 |
| 20260507062622 | 41 | 333 | 1.7 | 3.5 | 0.00 | 0.00 | 0.00 | 99 | 1011.3 |
| 20260507062120 | 41 | 291 | 1.7 | 2.6 | 0.00 | 0.00 | 0.00 | 99 | 1011.8 |
| 20260507061620 | 42 | 310 | 0.9 | 2.6 | 0.00 | 0.00 | 0.00 | 99 | 1012.1 |
| 20260507061120 | 42 | 322 | 1.7 | 1.7 | 0.00 | 0.00 | 0.00 | 99 | 1012.2 |
| 20260507060617 | 42 | 331 | 1.7 | 4.3 | 0.00 | 0.00 | 0.00 | 99 | 1012.4 |
| 20260507060122 | 42 | 322 | 3.5 | 5.2 | 0.00 | 0.00 | 0.00 | 99 | 1012.6 |
| 20260507055618 | 43 | 325 | 1.7 | 4.3 | 0.00 | 0.00 | 0.00 | 97 | 1012.8 |
| 20260507055119 | 43 | 319 | 1.7 | 7.0 | 0.00 | 0.00 | 0.00 | 96 | 1012.6 |
| 20260507054617 | 43 | 326 | 3.5 | 6.1 | 0.00 | 0.00 | 0.00 | 94 | 1012.7 |
| 20260507054118 | 43 | 316 | 2.6 | 6.1 | 0.00 | 0.00 | 0.00 | 97 | 1012.6 |
| 20260507053617 | 43 | 337 | 2.6 | 3.5 | 0.00 | 0.00 | 0.00 | 97 | 1012.6 |
| 20260507053119 | 43 | 321 | 3.5 | 7.8 | 0.00 | 0.00 | 0.00 | 98 | 1012.5 |
| 20260507052619 | 43 | 320 | 1.7 | 2.6 | 0.00 | 0.00 | 0.00 | 97 | 1012.6 |
| 20260507052120 | 43 | 326 | 1.7 | 4.3 | 0.00 | 0.00 | 0.00 | 97 | 1012.7 |
| 20260507051619 | 43 | 332 | 2.6 | 5.2 | 0.00 | 0.00 | 0.00 | 96 | 1012.6 |
| 20260507051119 | 44 | 313 | 3.5 | 6.1 | 0.00 | 0.00 | 0.00 | 97 | 1012.7 |
| 20260507050617 | 44 | 303 | 1.7 | 6.1 | 0.00 | 0.00 | 0.00 | 98 | 1012.7 |
| 20260507050117 | 44 | 320 | 2.6 | 3.5 | 0.00 | 0.00 | 0.00 | 99 | 1012.4 |
| 20260507045618 | 44 | 318 | 1.7 | 3.5 | 0.00 | 0.00 | 0.00 | 99 | 1012.2 |
| 20260507045117 | 44 | 327 | 1.7 | 5.2 | 0.00 | 0.00 | 0.00 | 99 | 1012.2 |
| 20260507044620 | 44 | 324 | 1.7 | 2.6 | 0.00 | 0.00 | 0.00 | 99 | 1012.0 |
| 20260507044117 | 44 | 318 | 2.6 | 3.5 | 0.00 | 0.00 | 0.00 | 99 | 1012.1 |
| 20260507043617 | 44 | 332 | 1.7 | 3.5 | 0.00 | 0.00 | 0.00 | 99 | 1011.6 |
| 20260507043117 | 44 | 344 | 1.7 | 1.7 | 0.00 | 0.00 | 0.00 | 99 | 1011.4 |
| 20260507042620 | 44 | 331 | 2.6 | 4.3 | 0.00 | 0.00 | 0.00 | 99 | 1011.8 |
| 20260507042118 | 44 | 314 | 2.6 | 5.2 | 0.00 | 0.00 | 0.00 | 99 | 1011.9 |
| 20260507041617 | 44 | 329 | 2.6 | 4.3 | 0.00 | 0.00 | 0.00 | 99 | 1011.8 |
| 20260507041118 | 44 | 304 | 3.5 | 6.1 | 0.00 | 0.00 | 0.00 | 99 | 1011.0 |
| 20260507040619 | 44 | 328 | 1.7 | 1.7 | 0.00 | 0.00 | 0.00 | 99 | 1009.1 |
| 20260507040117 | 44 | 315 | 2.6 | 3.5 | 0.00 | 0.00 | 0.00 | 99 | 1008.7 |
| 20260507035617 | 44 | 327 | 1.7 | 2.6 | 0.00 | 0.00 | 0.41 | 99 | 1008.7 |
| 20260507035118 | 44 | 311 | 2.6 | 3.5 | 0.00 | 0.00 | 0.41 | 99 | 1008.8 |
| 20260507034617 | 44 | 311 | 1.7 | 5.2 | 0.00 | 0.00 | 0.41 | 99 | 1009.1 |
| 20260507034119 | 44 | 316 | 1.7 | 3.5 | 0.00 | 0.00 | 0.41 | 99 | 1009.4 |
| 20260507033617 | 44 | 324 | 3.5 | 5.2 | 0.00 | 0.00 | 0.41 | 99 | 1009.3 |
| 20260507033117 | 44 | 316 | 1.7 | 2.6 | 0.00 | 0.00 | 0.41 | 99 | 1009.2 |
| 20260507032618 | 44 | 325 | 1.7 | 3.5 | 0.00 | 0.00 | 0.41 | 99 | 1009.5 |
| 20260507032118 | 44 | 322 | 1.7 | 2.6 | 0.00 | 0.00 | 0.41 | 99 | 1009.8 |
| 20260507031621 | 44 | 312 | 3.5 | 7.0 | 0.00 | 0.00 | 0.41 | 99 | 1009.6 |
| 20260507031119 | 44 | 317 | 1.7 | 2.6 | 0.00 | 0.00 | 0.41 | 99 | 1009.2 |
| 20260507030617 | 44 | 319 | 1.7 | 3.5 | 0.00 | 0.00 | 0.41 | 99 | 1009.0 |
| 20260507030119 | 44 | 319 | 1.7 | 3.5 | 0.00 | 0.00 | 0.41 | 99 | 1009.0 |
| 20260507025617 | 44 | 323 | 2.6 | 4.3 | 0.00 | 0.00 | 0.41 | 99 | 1008.8 |
| 20260507025117 | 44 | 328 | 3.5 | 4.3 | 0.00 | 0.00 | 0.41 | 99 | 1009.0 |
| 20260507024619 | 44 | 323 | 2.6 | 3.5 | 0.00 | 0.00 | 0.41 | 99 | 1009.2 |
| 20260507024118 | 45 | 323 | 2.6 | 2.6 | 0.00 | 0.00 | 0.41 | 99 | 1009.4 |
| 20260507023618 | 45 | 321 | 2.6 | 3.5 | 0.00 | 0.00 | 0.41 | 99 | 1009.5 |
| 20260507023119 | 45 | 326 | 1.7 | 3.5 | 0.00 | 0.00 | 0.41 | 99 | 1009.5 |
| 20260507022619 | 45 | 338 | 3.5 | 4.3 | 0.00 | 0.00 | 0.41 | 99 | 1009.0 |
| 20260507022118 | 45 | 314 | 2.6 | 5.2 | 0.00 | 0.00 | 0.41 | 99 | 1009.2 |
| 20260507021619 | 45 | 323 | 2.6 | 4.3 | 0.00 | 0.00 | 0.41 | 99 | 1009.4 |
| 20260507021120 | 45 | 302 | 3.5 | 5.2 | 0.00 | 0.00 | 0.41 | 99 | 1009.3 |
| 20260507020619 | 45 | 309 | 1.7 | 2.6 | 0.00 | 0.00 | 0.41 | 99 | 1009.3 |
| 20260507020119 | 45 | 328 | 0.9 | 1.7 | 0.00 | 0.00 | 0.41 | 99 | 1009.3 |
| 20260507015617 | 45 | 337 | 0.9 | 2.6 | 0.00 | 0.00 | 0.41 | 99 | 1009.8 |
| 20260507015120 | 45 | 315 | 1.7 | 2.6 | 0.00 | 0.00 | 0.41 | 99 | 1009.5 |
| 20260507014619 | 45 | 314 | 0.9 | 0.9 | 0.00 | 0.00 | 0.41 | 99 | 1009.5 |
| 20260507014117 | 45 | 305 | 1.7 | 3.5 | 0.00 | 0.00 | 0.41 | 99 | 1009.6 |
| 20260507013617 | 45 | 277 | 0.0 | 0.9 | 0.00 | 0.00 | 0.41 | 99 | 1009.9 |
| 20260507013117 | 45 | 300 | 0.9 | 1.7 | 0.00 | 0.00 | 0.41 | 99 | 1010.0 |
| 20260507012617 | 45 | 340 | 2.6 | 3.5 | 0.00 | 0.00 | 0.41 | 99 | 1009.6 |
| 20260507012117 | 45 | 334 | 0.9 | 1.7 | 0.00 | 0.00 | 0.41 | 99 | 1010.0 |
| 20260507011619 | 45 | 337 | 1.7 | 2.6 | 0.00 | 0.00 | 0.41 | 99 | 1010.4 |
| 20260507011119 | 45 | 329 | 2.6 | 5.2 | 0.00 | 0.00 | 0.41 | 99 | 1010.6 |
| 20260507010617 | 45 | 314 | 0.9 | 1.7 | 0.00 | 0.00 | 0.41 | 99 | 1010.7 |
| 20260507010119 | 45 | 338 | 1.7 | 3.5 | 0.00 | 0.00 | 0.41 | 99 | 1010.6 |
| 20260507005620 | 45 | 330 | 2.6 | 3.5 | 0.00 | 0.00 | 0.41 | 99 | 1009.9 |
| 20260507005120 | 45 | 358 | 2.6 | 5.2 | 0.00 | 0.00 | 0.41 | 99 | 1009.6 |
| 20260507004620 | 45 | 334 | 2.6 | 4.3 | 0.00 | 0.00 | 0.41 | 99 | 1009.9 |
| 20260507004118 | 45 | 344 | 3.5 | 7.0 | 0.00 | 0.00 | 0.41 | 99 | 1009.6 |
| 20260507003618 | 45 | 346 | 2.6 | 5.2 | 0.00 | 0.00 | 0.41 | 99 | 1009.2 |
| 20260507003117 | 45 | 349 | 1.7 | 3.5 | 0.00 | 0.00 | 0.41 | 99 | 1009.1 |
| 20260507002617 | 45 | 345 | 3.5 | 6.1 | 0.00 | 0.00 | 0.41 | 99 | 1008.9 |
| 20260507002117 | 45 | 351 | 3.5 | 6.1 | 0.00 | 0.00 | 0.41 | 99 | 1008.7 |
| 20260507001617 | 45 | 325 | 1.7 | 3.5 | 0.00 | 0.00 | 0.41 | 99 | 1008.6 |
| 20260507001118 | 45 | 350 | 3.5 | 5.2 | 0.00 | 0.00 | 0.41 | 99 | 1008.5 |
| 20260507000619 | 46 | 343 | 2.6 | 4.3 | 0.00 | 0.00 | 0.41 | 99 | 1008.5 |
| 20260507000121 | 46 | 340 | 3.5 | 4.3 | 0.00 | 0.00 | 0.41 | 99 | 1008.4 |
| 20260506235620 | 46 | 344 | 4.3 | 7.0 | 0.00 | 0.00 | 0.41 | 99 | 1008.3 |
| 20260506235117 | 46 | 344 | 4.3 | 7.0 | 0.00 | 0.00 | 0.41 | 99 | 1008.4 |
| 20260506234620 | 46 | 344 | 3.5 | 5.2 | 0.00 | 0.00 | 0.41 | 99 | 1008.4 |
| 20260506234120 | 46 | 331 | 4.3 | 7.8 | 0.00 | 0.00 | 0.41 | 99 | 1008.3 |
| 20260506233617 | 46 | 340 | 4.3 | 6.1 | 0.00 | 0.00 | 0.41 | 99 | 1007.8 |
| 20260506233119 | 46 | 343 | 3.5 | 4.3 | 0.00 | 0.00 | 0.41 | 99 | 1007.6 |
| 20260506232618 | 46 | 339 | 4.3 | 7.8 | 0.00 | 0.00 | 0.41 | 99 | 1007.6 |
| 20260506232117 | 46 | 341 | 5.2 | 7.8 | 0.00 | 0.00 | 0.41 | 99 | 1007.5 |
| 20260506231617 | 46 | 339 | 5.2 | 7.8 | 0.00 | 0.00 | 0.41 | 99 | 1007.5 |
| 20260506231118 | 46 | 336 | 6.1 | 8.7 | 0.00 | 0.00 | 0.41 | 99 | 1007.4 |
| 20260506230619 | 46 | 349 | 6.1 | 9.6 | 0.00 | 0.00 | 0.41 | 99 | 1007.2 |
| 20260506230120 | 46 | 340 | 5.2 | 7.8 | 0.00 | 0.00 | 0.41 | 99 | 1007.3 |
| 20260506225621 | 46 | 343 | 4.3 | 9.6 | 0.00 | 0.00 | 0.41 | 99 | 1007.3 |
| 20260506225117 | 46 | 345 | 7.8 | 12.2 | 0.00 | 0.00 | 0.41 | 99 | 1006.9 |
| 20260506224620 | 47 | 339 | 6.1 | 10.4 | 0.00 | 0.00 | 0.41 | 99 | 1007.0 |
| 20260506224118 | 47 | 332 | 3.5 | 6.1 | 0.00 | 0.00 | 0.41 | 99 | 1006.9 |
| 20260506223619 | 47 | 331 | 4.3 | 7.8 | 0.00 | 0.00 | 0.41 | 99 | 1007.1 |
| 20260506223119 | 47 | 323 | 4.3 | 7.0 | 0.00 | 0.00 | 0.41 | 99 | 1007.2 |
| 20260506222617 | 47 | 323 | 3.5 | 7.8 | 0.00 | 0.00 | 0.41 | 99 | 1007.2 |
| 20260506222118 | 47 | 343 | 3.5 | 5.2 | 0.00 | 0.00 | 0.41 | 99 | 1007.2 |
| 20260506221619 | 47 | 336 | 2.6 | 5.2 | 0.00 | 0.00 | 0.41 | 99 | 1007.2 |
| 20260506221119 | 47 | 328 | 2.6 | 4.3 | 0.00 | 0.00 | 0.41 | 99 | 1007.1 |
| 20260506220617 | 47 | 333 | 2.6 | 4.3 | 0.00 | 0.00 | 0.41 | 99 | 1007.1 |
| 20260506220117 | 47 | 323 | 3.5 | 5.2 | 0.00 | 0.00 | 0.41 | 99 | 1007.0 |
| 20260506215620 | 47 | 326 | 5.2 | 7.0 | 0.00 | 0.00 | 0.41 | 99 | 1007.1 |
| 20260506215117 | 48 | 317 | 3.5 | 6.1 | 0.00 | 0.00 | 0.41 | 99 | 1007.1 |
| 20260506214619 | 48 | 321 | 5.2 | 9.6 | 0.00 | 0.00 | 0.41 | 99 | 1007.0 |
| 20260506214119 | 48 | 323 | 5.2 | 6.1 | 0.01 | 0.00 | 0.41 | 99 | 1007.0 |
| 20260506213620 | 48 | 322 | 4.3 | 7.0 | 0.01 | 0.00 | 0.41 | 99 | 1007.0 |
| 20260506213117 | 49 | 335 | 4.3 | 8.7 | 0.01 | 0.00 | 0.41 | 99 | 1007.1 |
| 20260506212618 | 49 | 331 | 2.6 | 4.3 | 0.01 | 0.00 | 0.41 | 99 | 1007.1 |
| 20260506212117 | 49 | 331 | 5.2 | 7.8 | 0.01 | 0.00 | 0.41 | 99 | 1006.6 |
| 20260506211618 | 49 | 336 | 5.2 | 9.6 | 0.01 | 0.00 | 0.41 | 99 | 1006.5 |
| 20260506211117 | 49 | 334 | 3.5 | 6.1 | 0.01 | 0.00 | 0.41 | 99 | 1006.5 |
| 20260506210619 | 49 | 329 | 3.5 | 13.9 | 0.01 | 0.00 | 0.41 | 99 | 1006.6 |
| 20260506210117 | 50 | 318 | 3.5 | 5.2 | 0.01 | 0.00 | 0.41 | 99 | 1006.3 |
| 20260506205617 | 50 | 314 | 5.2 | 7.0 | 0.01 | 0.00 | 0.41 | 99 | 1006.2 |
| 20260506205120 | 51 | 314 | 3.5 | 6.1 | 0.01 | 0.00 | 0.41 | 99 | 1006.0 |
| 20260506204618 | 51 | 319 | 3.5 | 7.0 | 0.00 | 0.00 | 0.41 | 99 | 1005.9 |
| 20260506204117 | 52 | 311 | 3.5 | 5.2 | 0.00 | 0.00 | 0.41 | 99 | 1005.8 |
| 20260506203618 | 53 | 308 | 2.6 | 7.0 | 0.00 | 0.00 | 0.41 | 99 | 1005.6 |
| 20260506203119 | 53 | 342 | 4.3 | 9.6 | 0.00 | 0.00 | 0.41 | 99 | 1005.6 |
| 20260506202619 | 55 | 316 | 4.3 | 7.0 | 0.00 | 0.00 | 0.41 | 99 | 1006.5 |
| 20260506202117 | 56 | 326 | 3.5 | 5.2 | 0.00 | 0.00 | 0.40 | 100 | 1007.3 |
| 20260506201620 | 56 | 303 | 1.7 | 3.5 | 0.00 | 0.00 | 0.40 | 100 | 1007.5 |
| 20260506201122 | 57 | 311 | 2.6 | 5.2 | 0.00 | 0.00 | 0.40 | 100 | 1008.0 |
| 20260506200159 | 57 | 273 | 2.6 | 3.5 | 0.00 | 0.00 | 0.40 | 100 | 1008.1 |
| 20260506195620 | 56 | 300 | 2.6 | 5.2 | 0.00 | 0.00 | 0.40 | 100 | 1008.0 |
| 20260506195119 | 56 | 300 | 2.6 | 6.1 | 0.00 | 0.00 | 0.40 | 100 | 1006.5 |
| 20260506194625 | 55 | 295 | 1.7 | 2.6 | 0.00 | 0.00 | 0.40 | 100 | 1006.0 |
| 20260506194117 | 55 | 305 | 2.6 | 4.3 | 0.00 | 0.00 | 0.40 | 100 | 1005.8 |
| 20260506193620 | 55 | 304 | 1.7 | 3.5 | 0.00 | 0.00 | 0.40 | 99 | 1005.6 |
| 20260506193117 | 55 | 299 | 2.6 | 4.3 | 0.00 | 0.00 | 0.40 | 99 | 1005.6 |
| 20260506192619 | 55 | 283 | 2.6 | 4.3 | 0.00 | 0.00 | 0.40 | 99 | 1005.4 |
| 20260506192117 | 56 | 280 | 1.7 | 2.6 | 0.00 | 0.00 | 0.40 | 99 | 1005.4 |
| 20260506191621 | 56 | 308 | 2.6 | 5.2 | 0.00 | 0.00 | 0.40 | 99 | 1005.2 |
| 20260506191117 | 56 | 308 | 1.7 | 1.7 | 0.00 | 0.00 | 0.40 | 99 | 1005.3 |
| 20260506190619 | 56 | 312 | 1.7 | 2.6 | 0.00 | 0.00 | 0.40 | 99 | 1005.3 |
| 20260506190117 | 56 | 326 | 1.7 | 4.3 | 0.00 | 0.00 | 0.40 | 99 | 1005.6 |
| 20260506185617 | 56 | 277 | 1.7 | 3.5 | 0.00 | 0.00 | 0.40 | 99 | 1005.6 |
| 20260506185117 | 56 | 283 | 1.7 | 5.2 | 0.00 | 0.00 | 0.40 | 99 | 1005.8 |
| 20260506184622 | 56 | 250 | 2.6 | 5.2 | 0.00 | 0.00 | 0.40 | 99 | 1005.9 |
| 20260506184121 | 56 | 303 | 1.7 | 3.5 | 0.00 | 0.00 | 0.40 | 100 | 1005.7 |
| 20260506183621 | 56 | 294 | 1.7 | 2.6 | 0.00 | 0.00 | 0.40 | 100 | 1005.4 |
| 20260506183121 | 56 | 234 | 1.7 | 1.7 | 0.00 | 0.00 | 0.40 | 100 | 1005.4 |
| 20260506182618 | 55 | 261 | 0.9 | 1.7 | 0.00 | 0.00 | 0.40 | 100 | 1005.4 |
| 20260506182118 | 55 | 244 | 1.7 | 2.6 | 0.00 | 0.00 | 0.40 | 100 | 1005.5 |
| 20260506181620 | 55 | 247 | 1.7 | 1.7 | 0.00 | 0.00 | 0.40 | 100 | 1005.5 |
| 20260506181121 | 55 | 284 | 2.6 | 3.5 | 0.00 | 0.00 | 0.40 | 100 | 1005.6 |
| 20260506180620 | 55 | 239 | 1.7 | 3.5 | 0.00 | 0.00 | 0.40 | 100 | 1005.7 |
| 20260506180117 | 55 | 230 | 2.6 | 3.5 | 0.00 | 0.00 | 0.40 | 100 | 1005.6 |
| 20260506175622 | 55 | 208 | 0.9 | 1.7 | 0.00 | 0.00 | 0.40 | 100 | 1005.6 |
| 20260506175117 | 55 | 248 | 0.9 | 3.5 | 0.00 | 0.00 | 0.40 | 100 | 1005.7 |
| 20260506174618 | 55 | 249 | 1.7 | 3.5 | 0.00 | 0.00 | 0.40 | 100 | 1005.9 |
| 20260506174121 | 55 | 233 | 1.7 | 2.6 | 0.00 | 0.00 | 0.40 | 100 | 1006.2 |
| 20260506173617 | 54 | 220 | 1.7 | 3.5 | 0.00 | 0.00 | 0.40 | 100 | 1006.4 |
| 20260506173123 | 54 | 177 | 4.3 | 8.7 | 0.00 | 0.00 | 0.40 | 100 | 1006.4 |
| 20260506172617 | 54 | 202 | 1.7 | 3.5 | 0.00 | 0.00 | 0.40 | 100 | 1006.4 |
| 20260506172122 | 54 | 162 | 5.2 | 7.8 | 0.00 | 0.00 | 0.40 | 100 | 1006.4 |
| 20260506171618 | 54 | 166 | 1.7 | 4.3 | 0.00 | 0.00 | 0.40 | 100 | 1006.4 |
| 20260506171120 | 54 | 180 | 3.5 | 6.1 | 0.00 | 0.00 | 0.40 | 100 | 1006.4 |
| 20260506170617 | 54 | 189 | 3.5 | 6.1 | 0.00 | 0.00 | 0.40 | 100 | 1006.5 |
| 20260506170120 | 54 | 182 | 2.6 | 5.2 | 0.00 | 0.00 | 0.40 | 100 | 1006.6 |
| 20260506165620 | 53 | 167 | 4.3 | 6.1 | 0.00 | 0.00 | 0.40 | 100 | 1006.6 |
| 20260506165121 | 53 | 163 | 3.5 | 6.1 | 0.00 | 0.00 | 0.40 | 100 | 1006.5 |
| 20260506164617 | 53 | 161 | 4.3 | 7.0 | 0.00 | 0.00 | 0.40 | 100 | 1006.6 |
| 20260506164120 | 53 | 166 | 4.3 | 7.0 | 0.00 | 0.00 | 0.40 | 100 | 1006.6 |
| 20260506163619 | 53 | 161 | 3.5 | 5.2 | 0.00 | 0.00 | 0.40 | 100 | 1006.6 |
| 20260506163122 | 53 | 157 | 4.3 | 7.0 | 0.00 | 0.00 | 0.40 | 100 | 1006.6 |
| 20260506162622 | 53 | 162 | 4.3 | 6.1 | 0.00 | 0.00 | 0.40 | 100 | 1006.7 |
| 20260506162118 | 53 | 155 | 6.1 | 7.8 | 0.00 | 0.00 | 0.40 | 100 | 1006.6 |
| 20260506161620 | 53 | 150 | 3.5 | 6.1 | 0.00 | 0.00 | 0.40 | 100 | 1006.7 |
| 20260506161117 | 53 | 146 | 5.2 | 7.0 | 0.00 | 0.00 | 0.40 | 100 | 1006.6 |
| 20260506160620 | 53 | 146 | 5.2 | 7.0 | 0.00 | 0.00 | 0.40 | 100 | 1006.6 |
| 20260506160118 | 53 | 175 | 2.6 | 3.5 | 0.01 | 0.00 | 0.40 | 100 | 1006.7 |
| 20260506155619 | 53 | 149 | 3.5 | 6.1 | 0.01 | 0.00 | 0.40 | 99 | 1006.8 |
| 20260506155120 | 53 | 162 | 3.5 | 6.1 | 0.02 | 0.00 | 0.40 | 99 | 1006.8 |
| 20260506154620 | 53 | 163 | 5.2 | 8.7 | 0.03 | 0.00 | 0.40 | 99 | 1006.8 |
| 20260506154120 | 52 | 161 | 5.2 | 7.8 | 0.03 | 0.00 | 0.40 | 99 | 1006.7 |
| 20260506153619 | 52 | 150 | 4.3 | 7.0 | 0.03 | 0.00 | 0.40 | 99 | 1006.6 |
| 20260506153120 | 52 | 130 | 6.1 | 7.0 | 0.04 | 0.00 | 0.40 | 99 | 1006.6 |
| 20260506152619 | 52 | 146 | 7.8 | 7.8 | 0.04 | 0.00 | 0.40 | 99 | 1006.4 |
| 20260506151638 | 52 | 138 | 6.1 | 7.8 | 0.07 | 0.00 | 0.41 | 99 | 1006.3 |
| 20260506151119 | 52 | 144 | 5.2 | 7.0 | 0.07 | 0.00 | 0.41 | 99 | 1006.2 |
| 20260506150621 | 52 | 145 | 5.2 | 7.0 | 0.08 | 0.00 | 0.41 | 99 | 1006.4 |
| 20260506150120 | 52 | 142 | 7.0 | 9.6 | 0.07 | 0.00 | 0.41 | 99 | 1006.3 |
| 20260506145621 | 52 | 147 | 5.2 | 7.8 | 0.07 | 0.00 | 0.41 | 99 | 1006.4 |
| 20260506145121 | 52 | 140 | 3.5 | 7.8 | 0.06 | 0.00 | 0.41 | 99 | 1006.4 |
| 20260506144620 | 52 | 131 | 5.2 | 7.8 | 0.06 | 0.00 | 0.40 | 99 | 1006.4 |
| 20260506144120 | 52 | 129 | 7.0 | 8.7 | 0.06 | 0.00 | 0.39 | 99 | 1006.3 |
| 20260506143619 | 52 | 139 | 5.2 | 7.0 | 0.06 | 0.00 | 0.38 | 99 | 1006.4 |
| 20260506143120 | 52 | 134 | 5.2 | 7.8 | 0.06 | 0.00 | 0.38 | 99 | 1006.4 |
| 20260506142619 | 52 | 119 | 4.3 | 7.0 | 0.06 | 0.00 | 0.38 | 99 | 1006.0 |
| 20260506142119 | 52 | 156 | 4.3 | 7.8 | 0.05 | 0.00 | 0.39 | 99 | 1006.0 |
| 20260506141621 | 52 | 138 | 4.3 | 7.0 | 0.05 | 0.00 | 0.38 | 99 | 1006.2 |
| 20260506141120 | 52 | 145 | 5.2 | 6.1 | 0.03 | 0.00 | 0.38 | 99 | 1006.3 |
| 20260506140619 | 52 | 131 | 6.1 | 7.8 | 0.03 | 0.00 | 0.36 | 99 | 1005.9 |
| 20260506140120 | 52 | 141 | 7.0 | 10.4 | 0.03 | 0.00 | 0.37 | 99 | 1005.9 |
| 20260506135619 | 52 | 140 | 5.2 | 7.0 | 0.04 | 0.00 | 0.36 | 99 | 1006.0 |
| 20260506135119 | 52 | 150 | 5.2 | 7.8 | 0.04 | 0.00 | 0.35 | 99 | 1006.2 |
| 20260506134620 | 52 | 137 | 6.1 | 8.7 | 0.05 | 0.00 | 0.34 | 99 | 1006.2 |
| 20260506134120 | 52 | 139 | 5.2 | 8.7 | 0.07 | 0.00 | 0.34 | 99 | 1006.0 |
| 20260506133619 | 52 | 142 | 7.0 | 10.4 | 0.07 | 0.00 | 0.34 | 99 | 1006.0 |
| 20260506133120 | 52 | 149 | 5.2 | 7.0 | 0.10 | 0.00 | 0.34 | 99 | 1005.9 |
| 20260506132619 | 52 | 139 | 7.8 | 11.3 | 0.12 | 0.00 | 0.34 | 99 | 1005.7 |
| 20260506132120 | 52 | 134 | 7.8 | 11.3 | 0.12 | 0.00 | 0.34 | 99 | 1005.6 |
| 20260506131620 | 52 | 146 | 7.0 | 8.7 | 0.13 | 0.00 | 0.34 | 99 | 1005.7 |
| 20260506131119 | 52 | 135 | 6.1 | 9.6 | 0.13 | 0.00 | 0.34 | 99 | 1005.4 |
| 20260506130618 | 52 | 133 | 5.2 | 8.7 | 0.13 | 0.00 | 0.34 | 99 | 1005.3 |
| 20260506130122 | 52 | 120 | 6.1 | 8.7 | 0.13 | 0.00 | 0.33 | 99 | 1005.3 |
| 20260506125621 | 52 | 126 | 6.1 | 9.6 | 0.11 | 0.00 | 0.32 | 99 | 1005.1 |
| 20260506125120 | 52 | 140 | 6.1 | 9.6 | 0.11 | 0.00 | 0.32 | 99 | 1005.1 |
| 20260506124621 | 52 | 136 | 6.1 | 7.8 | 0.11 | 0.00 | 0.31 | 99 | 1005.2 |
| 20260506124121 | 53 | 133 | 6.1 | 8.7 | 0.10 | 0.00 | 0.30 | 99 | 1005.5 |
| 20260506123619 | 53 | 138 | 6.1 | 9.6 | 0.10 | 0.00 | 0.30 | 99 | 1005.6 |
| 20260506123119 | 53 | 148 | 6.1 | 7.8 | 0.08 | 0.00 | 0.28 | 99 | 1005.8 |
| 20260506122619 | 53 | 121 | 3.5 | 5.2 | 0.06 | 0.00 | 0.27 | 99 | 1005.9 |
| 20260506122120 | 53 | 147 | 4.3 | 5.2 | 0.05 | 0.00 | 0.26 | 99 | 1006.2 |
| 20260506121619 | 53 | 138 | 3.5 | 5.2 | 0.05 | 0.00 | 0.25 | 99 | 1006.4 |
| 20260506121119 | 53 | 153 | 4.3 | 6.1 | 0.04 | 0.00 | 0.23 | 99 | 1006.5 |
| 20260506120619 | 53 | 141 | 5.2 | 7.8 | 0.05 | 0.00 | 0.21 | 99 | 1006.9 |
| 20260506120122 | 53 | 144 | 5.2 | 7.0 | 0.05 | 0.00 | 0.20 | 99 | 1007.1 |
| 20260506115619 | 53 | 137 | 5.2 | 6.1 | 0.04 | 0.00 | 0.20 | 99 | 1007.0 |
| 20260506115120 | 53 | 139 | 4.3 | 5.2 | 0.06 | 0.00 | 0.20 | 99 | 1006.4 |
| 20260506114618 | 53 | 134 | 4.3 | 5.2 | 0.06 | 0.00 | 0.20 | 99 | 1006.5 |
| 20260506114119 | 53 | 131 | 4.3 | 5.2 | 0.05 | 0.00 | 0.19 | 99 | 1006.4 |
| 20260506113620 | 53 | 129 | 3.5 | 4.3 | 0.05 | 0.00 | 0.19 | 99 | 1006.4 |
| 20260506113120 | 53 | 139 | 3.5 | 5.2 | 0.05 | 0.00 | 0.18 | 99 | 1006.5 |
| 20260506112619 | 54 | 143 | 3.5 | 5.2 | 0.07 | 0.00 | 0.17 | 99 | 1007.6 |
| 20260506112119 | 54 | 144 | 3.5 | 3.5 | 0.07 | 0.00 | 0.19 | 99 | 1008.2 |
| 20260506111617 | 55 | 142 | 3.5 | 3.5 | 0.07 | 0.00 | 0.19 | 100 | 1008.6 |
| 20260506111118 | 55 | 144 | 2.6 | 2.6 | 0.08 | 0.00 | 0.19 | 100 | 1008.7 |
| 20260506110619 | 55 | 148 | 2.6 | 2.6 | 0.07 | 0.00 | 0.18 | 98 | 1009.0 |
| 20260506110120 | 55 | 165 | 1.7 | 2.6 | 0.07 | 0.00 | 0.17 | 96 | 1009.3 |
| 20260506105620 | 55 | 212 | 1.7 | 2.6 | 0.07 | 0.00 | 0.16 | 95 | 1009.4 |
| 20260506105124 | 55 | 190 | 0.9 | 1.7 | 0.06 | 0.00 | 0.16 | 96 | 1009.2 |
| 20260506104619 | 55 | 180 | 2.6 | 3.5 | 0.05 | 0.00 | 0.16 | 95 | 1009.2 |
| 20260506104119 | 55 | 171 | 1.7 | 1.7 | 0.05 | 0.00 | 0.15 | 96 | 1009.2 |
| 20260506103620 | 55 | 254 | 0.9 | 1.7 | 0.05 | 0.00 | 0.14 | 96 | 1009.2 |
| 20260506103119 | 55 | 260 | 0.0 | 0.9 | 0.05 | 0.00 | 0.13 | 97 | 1009.1 |
| 20260506102617 | 55 | 251 | 0.0 | 0.0 | 0.05 | 0.00 | 0.13 | 97 | 1009.2 |
| 20260506102118 | 55 | 255 | 0.0 | 0.9 | 0.04 | 0.00 | 0.13 | 96 | 1009.5 |
| 20260506101620 | 56 | 266 | 0.0 | 0.9 | 0.04 | 0.00 | 0.12 | 96 | 1009.5 |
| 20260506101117 | 56 | 206 | 0.9 | 1.7 | 0.03 | 0.00 | 0.12 | 94 | 1009.6 |
| 20260506100619 | 56 | 258 | 0.9 | 1.7 | 0.04 | 0.00 | 0.11 | 95 | 1009.5 |
| 20260506100118 | 56 | 268 | 0.0 | 0.9 | 0.04 | 0.00 | 0.10 | 93 | 1009.6 |
| 20260506095619 | 56 | 296 | 0.9 | 0.9 | 0.04 | 0.00 | 0.09 | 93 | 1009.6 |